Weather observations for the past three days for
Kenai, Kenai Municipal Airport
Imperial (Metric)
Date Time (akdt) Wind (mph) Vis. (mi.) Weather Sky Cond. Temperature (ºF) Relative Humidity Wind Chill (°F) Heat Index (°F) Pressure Precipitation (in)
Air Dwpt 6 hour altimeter (in) sea level (mb) 1 hr 3 hr 6 hr
Max. Min.
20 16:53 S 13 10.00 Overcast OVC100 64 52 65% 30.16 1021.3
20 15:53 N 6 10.00 A Few Clouds FEW100 75.9 53.1 77 64 45% 78 30.14 1020.7
20 14:53 Vrbl 7 10.00 Fair CLR 75 53.1 46% 78 30.14 1020.7
20 13:53 NE 9 10.00 Fair CLR 73 51.1 46% 30.14 1020.9
20 12:53 N 9 10.00 Fair CLR 71.1 48.9 46% 30.15 1021.0
20 11:53 NE 9 10.00 Fair CLR 69.1 51.1 53% 30.15 1021.1
20 10:53 NE 9 10.00 Fair CLR 66.9 52 59% 30.15 1021.1
20 09:53 N 7 10.00 Fair CLR 64 50 64 42.1 60% 30.15 1021.2
20 08:53 Calm 10.00 Fair CLR 60.1 50 70% 30.16 1021.5
20 07:53 Calm 10.00 Fair CLR 54 50 87% 30.16 1021.3
20 06:53 N 3 10.00 Fair CLR 46 46 100% 30.15 1021.1
20 05:53 NE 3 10.00 Fair CLR 43 43 100% 30.15 1021.0
20 04:53 Calm 10.00 Fair CLR 46 44.1 93% 30.14 1020.7
20 03:53 Calm 2.50 Fog/Mist CLR 46 45 62.1 46 96% 30.14 1020.8
20 02:53 Calm 10.00 Fair CLR 48.9 46.9 93% 30.14 1020.7
20 01:53 Calm 10.00 Fair CLR 52 50 93% 30.14 1020.8
20 00:53 S 5 10.00 Fair CLR 51.1 50 96% 30.14 1020.7
19 23:53 S 3 10.00 Fair CLR 53.1 51.1 93% 30.13 1020.5
19 22:53 Calm 10.00 Fair CLR 57.9 48 70% 30.13 1020.5
19 21:53 NW 5 10.00 Fair CLR 62.1 48.9 69.1 62.1 62% 30.12 1020.2
19 20:53 NW 6 10.00 Fair CLR 64 48.9 58% 30.12 1020.0
19 19:53 NW 7 10.00 Fair CLR 66 50 56% 30.11 1019.8
19 18:53 NW 7 10.00 Fair CLR 66 50 56% 30.12 1020.0
19 17:53 NW 8 10.00 Fair CLR 66 50 56% 30.12 1020.0
19 16:53 W 10 10.00 Fair CLR 66 48.9 54% 30.13 1020.3
19 15:53 NE 9 G 17 10.00 Fair CLR 68 48.9 68 55 51% 30.14 1020.7
19 14:53 NE 12 10.00 Fair CLR 66 46.9 50% 30.14 1020.9
19 13:53 NE 10 10.00 Fair CLR 64 48 56% 30.15 1021.2
19 12:53 NE 12 10.00 Partly Cloudy SCT032 62.1 48 60% 30.16 1021.5
19 11:53 N 9 10.00 Mostly Cloudy BKN029 BKN034 61 48.9 65% 30.17 1021.8
19 10:53 N 6 10.00 Mostly Cloudy SCT023 BKN033 57 48 72% 30.18 1022.0
19 09:53 NE 3 10.00 Fair CLR 55 48.9 57 43 80% 30.18 1022.0
19 08:53 NE 3 10.00 Partly Cloudy SCT009 54 50 87% 30.18 1022.2
19 07:53 Calm 10.00 Mostly Cloudy SCT005 BKN075 52 50 93% 30.18 1022.1
19 06:53 Calm 10.00 Overcast FEW001 OVC080 48 48 100% 30.18 1022.1
19 05:53 Calm 10.00 Overcast SCT001 OVC080 45 45 100% 30.17 1022.0
19 04:53 Calm 3.00 Fog/Mist OVC065 44.1 44.1 100% 30.17 1021.7
19 03:53 Calm 1.25 Fog/Mist BKN032 OVC070 44.1 44.1 54 44.1 100% 30.16 1021.7
19 02:53 Calm 10.00 Partly Cloudy FEW033 SCT100 46.9 45 93% 30.17 1021.8
19 01:53 Calm 10.00 Overcast SCT037 OVC070 50 48 93% 30.17 1021.7
19 00:53 Calm 10.00 Overcast OVC065 51.1 48 89% 30.16 1021.5
18 23:53 Calm 10.00 Overcast SCT037 OVC065 52 48 86% 30.15 1021.2
18 22:53 Calm 10.00 Mostly Cloudy BKN055 BKN065 53.1 46.9 80% 30.14 1020.9
18 21:53 W 6 10.00 Overcast FEW036 OVC065 54 46 55.9 54 75% 30.13 1020.5
18 20:53 SW 5 10.00 Overcast SCT040 OVC060 55 46 72% 30.12 1019.9
18 19:53 SW 3 10.00 Overcast BKN045 OVC060 55 46 72% 30.11 1019.8
18 18:53 SW 7 10.00 Overcast SCT045 OVC055 54 46.9 77% 30.11 1019.7
18 17:53 S 6 10.00 Overcast OVC045 54 46.9 77% 30.1 1019.5
18 16:53 S 5 10.00 Overcast OVC041 54 48 80% 30.09 1019.3
18 15:53 SW 7 10.00 Overcast OVC043 54 46.9 55 51.1 77% 30.09 1019.0
18 14:53 S 6 10.00 Overcast OVC044 55 48 77% 30.08 1018.6
18 13:53 S 8 10.00 Overcast OVC044 54 48 80% 30.07 1018.3
18 12:53 S 8 10.00 Overcast FEW033 OVC042 53.1 46.9 80% 30.05 1017.9
18 11:53 S 6 10.00 Overcast SCT017 BKN025 OVC041 52 48 86% 30.04 1017.5
18 10:53 S 7 10.00 Overcast BKN014 OVC044 51.1 48 89% 30.03 1017.0
18 09:53 S 8 10.00 Overcast FEW012 OVC038 51.1 48 51.1 48.9 89% 30.01 1016.5 0.02
18 08:53 SE 7 10.00 Overcast SCT020 OVC039 50 48.9 96% 48 30 1015.9 0.01
18 07:53 S 6 10.00 Light Rain SCT024 BKN040 OVC055 50 48.9 96% 48 29.98 1015.5
18 06:53 SE 5 10.00 Light Rain FEW019 FEW037 OVC055 50 48 93% 49 29.97 1015.1 0.01 0.01
18 05:53 S 3 10.00 Overcast SCT032 OVC047 48.9 48 97% 29.96 1014.6
18 04:53 SE 6 10.00 Overcast OVC045 48.9 48 97% 47 29.95 1014.4
18 03:53 S 6 10.00 Overcast FEW034 BKN044 OVC090 50 46 52 50 86% 48 29.94 1014.2
18 01:53 S 6 10.00 Overcast FEW026 OVC075 51.1 46 83% 29.93 1013.7
18 00:53 S 6 10.00 Overcast SCT028 OVC080 51.1 46 83% 29.92 1013.2
17 23:53 S 8 10.00 Mostly Cloudy FEW034 SCT070 BKN090 52 45 77% 29.91 1012.9
17 22:53 S 8 10.00 Overcast SCT075 OVC095 52 46 80% 29.9 1012.6
17 21:53 S 13 10.00 Overcast SCT090 OVC110 52 46 53.1 51.1 80% 29.89 1012.3
17 20:53 SW 13 10.00 Overcast FEW065 OVC095 52 46 80% 29.88 1012.0
17 19:53 S 15 10.00 Overcast OVC090 52 46.9 83% 29.88 1012.1
17 18:53 S 15 10.00 Overcast OVC075 52 46.9 83% 29.88 1012.0
17 17:53 SW 14 10.00 Mostly Cloudy FEW070 BKN095 BKN110 53.1 48 83% 29.87 1011.8
Date Time (akdt) Wind (mph) Vis. (mi.) Weather Sky Cond. Air Dwpt Max. Min. Relative Humidity Wind Chill (°F) Heat Index (°F) altimeter (in) sea level (mb) 1 hr 3 hr 6 hr
6 hour
Temperature (ºF) Pressure Precipitation (in)